Location: Pinon Hills
(34.4429°N, 117.6403°W)
Time: 04:23:10
(UTC-07:00)

Daily predictions for brighter satellites

Satellite Brightness Start Highest point End
(mag) Time Altitude Azimuth Time Altitude Azimuth Time Altitude Azimuth
Cosmos 2333 Rocket 3.4 00:02:58 10° NW 00:07:14 32° W 00:07:14 32° W
GEOS 3 Rocket 4.4 00:08:44 47° NE 00:08:44 47° NE 00:13:17 10° NNW
SL-16 R/B 2.5 00:04:55 10° NNW 00:09:36 62° NNW 00:09:36 62° NNW
Cosmos 2297 Rocket 3.9 00:18:30 22° W 00:20:08 25° WNW 00:24:47 10° N
Meteor 2-10 Rocket 4.4 00:17:23 10° N 00:21:53 47° NE 00:21:53 47° NE
CZ-4C R/B 4.4 00:18:21 10° N 00:24:15 27° NE 00:28:37 16° E
CZ-2C R/B 4.0 00:24:47 10° NNE 00:27:44 29° NE 00:27:44 29° NE
SeaSat 1 3.7 00:32:01 36° NW 00:32:01 36° NW 00:35:02 10° NNW
Cosmos 2219 Rocket 4.4 00:28:06 10° WNW 00:29:56 14° W 00:29:56 14° W
Cosmos 2184 Rocket 4.3 00:38:04 57° WNW 00:38:04 57° WNW 00:43:44 10° N
Lacrosse 4 Rocket 3.7 00:35:35 10° NW 00:37:19 23° NW 00:37:19 23° NW
Cosmos 1603 4.3 00:38:45 10° NNW 00:43:25 54° NNE 00:43:25 54° NNE
Cosmos 2341 Rocket 4.2 00:58:10 69° NE 00:58:10 69° NE 01:03:52 10° N
NOSS 3-4 (A) 3.9 01:05:20 54° ENE 01:05:20 54° ENE 01:10:34 10° NE
Cosmos 44 4.4 01:05:25 47° N 01:05:25 47° N 01:09:33 10° NNE
NOSS 3-4 (C) 3.9 01:05:26 54° ENE 01:05:26 54° ENE 01:10:39 10° NE
SL-8 Rocket 4.3 01:14:50 58° ENE 01:14:50 58° ENE 01:20:30 10° NNE
MOS 1-B Rocket 4.3 01:22:20 54° NW 01:22:20 54° NW 01:26:45 10° NNW
Cosmos 2218 Rocket 4.4 01:22:46 56° ENE 01:22:46 56° ENE 01:28:29 10° NNE
Cosmos 2366 rocket 4.1 01:37:41 64° ENE 01:37:41 64° ENE 01:43:24 10° NNE
Cosmos 2263 Rocket 2.5 01:42:34 64° N 01:42:34 64° N 01:47:21 10° NNE
CZ-2C R/B 3.6 01:43:44 61° NW 01:43:44 61° NW 01:48:26 10° NNW
RESURS DK-1 4.4 01:48:10 27° NNE 01:48:10 27° NNE 01:50:08 10° NNE
H-2A R/B 4.4 02:00:50 31° SE 02:00:50 31° SE 02:12:09 10° ESE
Cosmos 909 Rocket 4.0 01:58:20 79° ESE 01:58:20 79° ESE 02:05:19 10° NNE
Cosmos 864 Rocket 4.4 02:00:37 82° NNW 02:00:37 82° NNW 02:06:34 10° N
Cosmos 1867 4.0 01:55:05 10° NNW 02:00:28 56° ENE 02:00:32 56° ENE
Cosmos 1624 Rocket 4.4 02:02:31 59° NNE 02:02:31 59° NNE 02:06:47 10° NNE
Cosmos 1727 Rocket 3.9 01:56:54 10° N 02:03:09 75° E 02:03:15 75° E
Iridium 4 Rocket 4.1 02:02:07 10° N 02:06:08 51° NE 02:06:08 51° NE
CZ-2C R/B 4.3 02:05:46 10° NNW 02:09:16 21° WNW 02:09:16 21° WNW
CZ-4C R/B 2.8 02:06:04 10° NW 02:13:21 69° WSW 02:13:44 68° SW
Meteor 1-14 Rocket 4.3 02:17:11 71° WNW 02:17:11 71° WNW 02:22:54 10° N
USA 234 4.1 02:11:58 10° ESE 02:18:10 48° NE 02:24:24 10° NNW
Cosmos 1943 4.1 02:13:02 10° NNW 02:16:47 37° WNW 02:16:47 37° WNW
Cosmos 1452 Rocket 4.2 02:23:16 46° E 02:23:16 46° E 02:28:06 10° NNE
ARIANE 5 R/B 4.4 02:23:56 10° NE 02:27:31 20° E 02:28:34 18° ESE
CENTAUR R/B 4.4 02:23:43 10° NNW 02:30:52 36° NE 02:38:19 10° ESE
AQUA 4.2 02:28:11 10° NNE 02:32:31 58° ENE 02:32:31 58° ENE
ADEOS 4.3 02:30:04 10° NNE 02:35:02 43° E 02:35:31 42° ESE
Okean 1 Rocket 3.7 02:36:35 51° ENE 02:36:35 51° ENE 02:40:25 10° NNE
NOSS 3-2 (C) 3.9 02:28:53 10° NW 02:36:32 70° WSW 02:38:29 53° S
CBERS-1 4.1 02:31:37 10° NNE 02:36:46 68° ESE 02:36:47 68° ESE
Meteor 1-18 Rocket 4.1 02:42:03 10° NNW 02:47:44 78° W 02:48:07 74° SW
Gbstr 26 Del rocket 3.5 02:51:08 50° NNE 02:51:08 50° NNE 02:54:02 10° NE
NPP 3.5 02:46:03 10° N 02:51:25 71° WNW 02:51:45 69° WSW
SL-16 R/B 4.1 02:48:12 10° SE 02:53:39 33° ENE 02:59:04 10° N
Cosmos 1190 Rocket 3.8 02:48:46 10° NNW 02:53:56 78° W 02:53:56 78° W
ERS-2 3.2 02:52:03 10° N 02:54:39 43° N 02:54:39 43° N
GP-B 3.1 02:54:04 10° N 02:58:13 76° NNW 02:58:13 76° NNW
BREEZE-M TANK 4.0 02:56:06 10° NW 02:58:32 25° NNE 03:00:54 10° E
NOSS 3-2 (A) 4.4 02:52:49 10° NW 02:59:55 41° WSW 03:00:05 41° WSW
Cosmos 1812 3.7 02:57:14 10° NNW 02:59:55 42° NNW 02:59:55 42° NNW
NOSS 2-2 (D) 3.7 03:03:32 63° E 03:03:32 63° E 03:07:42 10° NE
Cosmos 1821 Rocket 3.9 03:02:06 53° SSW 03:03:46 85° W 03:10:12 10° N
Meteor 1-20 Rocket 4.5 03:05:47 50° WSW 03:06:29 53° W 03:12:10 10° N
Cosmos 1025 Rocket 4.4 03:02:32 10° NNE 03:06:29 35° E 03:08:15 25° SE
Cosmos 407 Rocket 3.3 03:04:28 10° NNW 03:09:37 70° WSW 03:10:00 66° SW
Meteor 1-11 Rocket 3.9 03:08:06 45° S 03:09:58 75° E 03:15:56 10° NNE
Cosmos 2123 Rocket 4.4 03:04:14 10° N 03:10:30 61° E 03:14:33 23° SSE
CZ-2D R/B 3.1 03:06:44 10° NNE 03:11:53 41° E 03:14:23 26° SSE
Meteor 2-21 Rocket 4.3 03:10:47 49° S 03:12:33 88° W 03:18:40 10° N
SL-27 R/B 3.6 03:09:27 10° NNW 03:11:51 39° NNW 03:11:51 39° NNW
Spot 4 Rocket 3.9 03:08:20 10° NNE 03:13:30 89° E 03:14:33 58° SSW
Okean 1 4.1 03:12:13 10° NNW 03:15:12 42° NW 03:15:12 42° NW
Cosmos 1400 Rocket 3.9 03:15:58 32° ESE 03:16:42 36° E 03:20:18 10° NNE
NOSS 2-2 (C) 3.3 03:17:34 83° WSW 03:17:41 85° WNW 03:22:11 10° NNE
Cosmos 676 Rocket 3.8 03:12:30 10° NNW 03:17:41 80° WSW 03:18:59 51° S
Meteor 1-13 Rocket 4.2 03:13:00 10° N 03:18:44 84° E 03:21:23 34° SSE
ERS-1 4.4 03:14:34 10° NNE 03:19:48 88° WNW 03:21:05 53° SSW
Cosmos 1844 Rocket 3.0 03:21:38 45° WSW 03:22:55 54° WNW 03:28:29 10° NNE
USA 161 3.1 03:25:43 32° N 03:25:43 32° N 03:27:25 10° N
Cosmos 2263 Rocket 4.5 03:25:05 10° WNW 03:26:25 11° NW 03:27:44 10° NW
STPSAT 2 (USA 217) 4.5 03:25:53 65° SSW 03:26:33 89° W 03:31:04 10° NNE
Cosmos 1544 Rocket 4.2 03:25:06 35° SSE 03:26:36 51° E 03:30:53 10° NNE
Cosmos 1844 3.8 03:29:25 44° SW 03:31:05 64° WNW 03:36:47 10° NNE
UNK 3.9 03:28:10 30° WSW 03:32:46 78° NW 03:36:22 10° NE
IRS-1D 3.4 03:28:41 10° NNE 03:33:46 86° ESE 03:35:33 41° S
Yuri Rocket 3.9 03:33:28 42° SSW 03:34:20 45° S 03:39:01 10° ESE
Meteor 2-16 Rocket 4.4 03:35:07 38° SSW 03:37:33 67° W 03:43:42 10° N
Cosmos 1315 Rocket 3.7 03:41:28 25° SSE 03:43:27 46° E 03:47:20 10° NNE
NOSS 2-2 (E) 4.2 03:42:29 35° W 03:43:28 41° NW 03:47:55 10° NNE
Cosmos 2297 4.3 03:40:37 23° S 03:43:53 51° ESE 03:49:21 10° NNE
UNK 3.8 03:41:07 20° SSE 03:44:15 75° ENE 03:48:53 10° N
Cosmos 1954 Rocket 4.0 03:39:43 10° NNW 03:44:46 57° WSW 03:46:48 34° SSW
Cosmos 2278 Rocket 2.2 03:42:34 37° SW 03:44:51 75° WNW 03:50:33 10° NNE
Cosmos 1602 4.4 03:45:13 36° W 03:45:13 36° W 03:48:47 10° NNW
COSMOS 2406 3.8 03:40:20 10° NW 03:45:33 36° WSW 03:46:27 34° SW
ATLAS 5 CENTAUR R/B 3.7 03:45:11 10° NNW 03:50:56 43° NE 03:57:01 10° SE
Cosmos 1892 Rocket 3.5 03:48:31 10° N 03:52:52 84° E 03:55:35 22° S
Meteor 1-5 Rocket 4.5 03:48:48 20° S 03:52:59 72° E 03:58:45 10° NNE
Cosmos 614 Rocket 4.2 03:50:47 10° NNW 03:55:56 70° ENE 04:01:01 10° SSE
Resurs 1-4 Rocket 2.1 03:50:43 10° N 03:56:01 72° WNW 03:58:48 28° SSW
Cosmos 1356 3.5 03:55:43 50° SW 03:56:18 59° W 03:59:49 10° N
Cosmos 1633 3.0 03:57:33 40° W 03:57:56 42° W 04:01:24 10° N
Cosmos 2100 Rocket 4.4 03:52:27 12° S 03:58:04 64° E 04:04:18 10° NNE
Okean 2 3.5 03:55:27 10° N 03:59:33 74° E 04:02:49 16° SSE
USA 234 3.5 03:55:03 10° SSE 04:01:09 42° SW 04:07:16 10° WNW
CZ-4B R/B 4.1 04:00:44 10° NNE 04:06:12 48° E 04:11:38 10° S
ARIANE 5 R/B 3.2 04:02:07 10° N 04:06:43 38° WNW 04:08:54 25° WSW
Cosmos 2082 Rocket 3.9 04:01:52 10° N 04:07:06 35° ENE 04:12:16 10° SE
Orbus 21S 4.3 03:54:48 10° WSW 04:08:05 34° SSW 04:11:37 10° SE
Cosmos 1110 Rocket 4.3 04:04:55 18° S 04:08:49 69° ESE 04:14:05 10° NNE
BREEZE-M DEB (TANK) 1.6 04:08:16 41° WSW 04:09:08 85° NW 04:11:58 10° NE
Cosmos 1536 3.9 04:09:08 25° W 04:09:59 27° WNW 04:13:30 10° NNW
COSMOS 2487 2.7 04:08:13 10° NNW 04:11:43 48° WSW 04:13:12 29° SSW
Meteor 2-4 Rocket 3.6 04:07:35 10° NNW 04:12:53 61° W 04:17:27 14° S
UNKNOWN OBJECT B 3.2 04:13:26 10° N 04:17:25 51° WNW 04:19:35 24° SW
CZ-2D R/B 3.3 04:15:50 10° N 04:19:48 69° WNW 04:22:29 20° SSW
Cosmos 1461 4.3 04:17:34 19° WSW 04:19:59 30° NW 04:24:05 10° N
ADEOS II 4.5 04:16:12 10° NE 04:19:59 20° E 04:23:47 10° SE
Cosmos 1447 Rocket 4.5 04:14:12 10° NNW 04:20:15 63° W 04:26:17 10° S
Timation 2 Rocket 3.9 04:15:17 10° NNW 04:21:25 87° ENE 04:27:23 10° SSE
CENTAUR R/B 3.2 04:14:08 10° NW 04:21:53 53° WSW 04:29:51 10° S
Cosmos 1602 Rocket 4.0 04:19:37 10° N 04:23:55 62° E 04:28:13 10° SSE
Cosmos 2061 Rocket 4.0 04:19:26 11° S 04:25:37 83° W 04:32:02 10° N
PSLV R/B 3.9 04:21:45 10° N 04:25:54 84° WNW 04:29:17 15° SSW
Okean O Rocket 1.5 04:21:33 10° N 04:25:55 83° W 04:29:35 14° SSW
Cosmos 1331 Rocket 4.0 04:27:10 15° SSW 04:31:37 83° WNW 04:36:51 10° NNE
ASC 2 Rocket 4.4 04:33:59 17° SW 04:35:44 21° S 04:38:52 10° SE
SL-16 R/B 3.2 04:31:53 11° SSW 04:37:07 34° W 04:42:44 10° NW
Cosmos 1140 Rocket 4.5 04:34:36 10° NW 04:38:46 25° W 04:42:25 12° SSW
Cosmos 1455 Rocket 4.1 04:36:12 17° SW 04:38:50 30° WNW 04:42:47 10° NNW
CZ-2C R/B 3.8 04:34:54 10° S 04:39:36 72° WSW 04:44:23 10° NNW
Skynet4D Del rocket 4.2 04:37:47 15° WSW 04:41:40 35° S 04:46:46 10° ESE
Cosmos 1626 Rocket 3.5 04:37:49 10° N 04:42:12 78° W 04:46:35 10° S
USA 129 3.1 04:49:23 18° SW 04:50:02 21° W 04:51:45 10° NW
NAVSTAR 52 R/B(PAM-D 4.0 04:48:46 18° SW 04:50:06 43° SSE 04:52:41 10° ENE
PSLV R/B 4.4 04:47:03 10° NNE 04:51:09 49° E 04:55:13 10° S
Cosmos 1833 Rocket 3.2 04:45:43 10° NNW 04:51:19 66° ENE 04:56:52 10° SSE
CZ-2D R/B 3.6 04:47:31 10° NNW 04:51:38 22° WNW 04:55:43 10° WSW
OAO 3 Copernicus 4.3 04:47:07 10° W 04:52:10 88° N 04:57:13 10° E
Cosmos 2016 Rocket 4.1 04:53:29 10° SSW 04:59:43 60° W 05:05:56 10° N
Cosmos 1302 Rocket 4.1 05:03:35 10° SSW 05:08:43 64° WNW 05:13:55 10° N
Cosmos 1606 Rocket 3.8 05:07:42 10° S 05:12:06 74° E 05:16:30 10° N
Cosmos 2233 Rocket 4.5 05:06:10 10° S 05:12:21 67° E 05:18:30 10° NNE
Cosmos 1725 Rocket 4.1 05:07:19 10° SSW 05:13:34 72° W 05:19:50 10° N
Cosmos 2369 Rocket 3.6 05:11:29 10° S 05:16:43 39° ESE 05:21:57 10° NE
